Hourly Data Report for July 30, 2013

All times are specified in Local Standard Time (LST). Add 1 hour to adjust for Daylight Saving Time where and when it is observed.

VICTORIA INTL A
BRITISH COLUMBIA

48°38'50.000" N
123°25'33.000" W
19.50 m
1018621
71799
YYJ

Download Data

Hourly Data (July 2013)
Hourly Data Report for July 30, 2013
Temp Definition
°C
Dew Point Temp Definition
°C
Rel Hum Definition
%
Wind Dir Definition
10's deg

Wind Spd Definition
km/h
Visibility Definition
km
Stn Press Definition
kPa
Hmdx Definition


Wind Chill Definition


Weather Definition


TIME
00:00 12.4 11.2 92 13 5 48.3 101.35     LegendNANA
01:00 12.4 11.0 91 12 6 48.3 101.38     Clear
02:00 12.4 11.3 93 8 5 48.3 101.43     LegendNANA
03:00 11.8 11.0 95 4 4 48.3 101.49     LegendNANA
04:00 10.7 9.9 95 4 2 48.3 101.54     Clear
05:00 11.7 11.2 97 8 6 32.2 101.58     LegendNANA
06:00 12.6 11.7 94 12 4 32.2 101.66     LegendNANA
07:00 13.8 12.0 89 9 8 32.2 101.72     Mainly Clear
08:00 15.2 12.0 81 11 6 32.2 101.75     LegendNANA
09:00 15.9 11.7 76 9 14 32.2 101.78     LegendNANA
10:00 16.9 12.1 73 11 7 32.2 101.80     Mainly Clear
11:00 14.8 11.2 79 13 18 32.2 101.80     LegendNANA
12:00 15.4 11.4 77 13 21 32.2 101.79     LegendNANA
13:00 16.2 11.8 75 14 23 32.2 101.78     Mostly Cloudy
14:00 15.5 11.5 77 14 23 32.2 101.75     LegendNANA
15:00 16.9 11.9 72 13 17 32.2 101.70     LegendNANA
16:00 16.8 12.2 74 12 15 32.2 101.68     Mostly Cloudy
17:00 17.1 12.1 72 10 12 32.2 101.64     LegendNANA
18:00 16.2 11.8 75 12 11 32.2 101.59     LegendNANA
19:00 15.1 12.1 82 9 10 32.2 101.59     Mainly Clear
20:00 14.8 12.2 84 12 13 32.2 101.63     LegendNANA
21:00 14.3 12.0 86 13 7 48.3 101.69     LegendNANA
22:00 13.6 12.0 90 12 4 48.3 101.70     Mainly Clear
23:00 13.6 11.7 88 2 3 48.3 101.70     LegendNANA

Notes on Data Quality.

Legend

  • E = Estimated
  • M = Missing
  • NA = Not Available
Date modified: